Year,Month,Day,Hour,Minute,Value (Times are PST for temperature in C)
2017,08,22,00,00,17.20
2017,08,22,00,01,17.20
2017,08,22,00,02,17.20
2017,08,22,00,03,17.20
2017,08,22,00,04,17.10
2017,08,22,00,05,17.10
2017,08,22,00,06,17.10
2017,08,22,00,07,17.10
2017,08,22,00,08,17.00
2017,08,22,00,09,17.00
2017,08,22,00,10,17.00
2017,08,22,00,11,17.00
2017,08,22,00,12,17.00
2017,08,22,00,13,16.90
2017,08,22,00,14,16.90
2017,08,22,00,15,16.90
2017,08,22,00,16,16.90
2017,08,22,00,17,16.80
2017,08,22,00,18,16.80
2017,08,22,00,19,16.80
2017,08,22,00,20,16.80
2017,08,22,00,21,16.70
2017,08,22,00,22,16.70
2017,08,22,00,23,16.70
2017,08,22,00,24,16.70
2017,08,22,00,25,16.70
2017,08,22,00,26,16.70
2017,08,22,00,27,16.70
2017,08,22,00,28,16.70
2017,08,22,00,29,16.70
2017,08,22,00,30,16.70
2017,08,22,00,31,16.70
2017,08,22,00,32,16.70
2017,08,22,00,33,16.70
2017,08,22,00,34,16.60
2017,08,22,00,35,16.60
2017,08,22,00,36,16.60
2017,08,22,00,37,16.60
2017,08,22,00,38,16.60
2017,08,22,00,39,16.60
2017,08,22,00,40,16.60
2017,08,22,00,41,16.60
2017,08,22,00,42,16.60
2017,08,22,00,43,16.60
2017,08,22,00,44,16.60
2017,08,22,00,45,16.60
2017,08,22,00,46,16.60
2017,08,22,00,47,16.60
2017,08,22,00,48,16.60
2017,08,22,00,49,16.60
2017,08,22,00,50,16.60
2017,08,22,00,51,16.60
2017,08,22,00,52,16.60
2017,08,22,00,53,16.60
2017,08,22,00,54,16.60
2017,08,22,00,55,16.60
2017,08,22,00,56,16.60
2017,08,22,00,57,16.60
2017,08,22,00,58,16.60
2017,08,22,00,59,16.50
2017,08,22,01,00,16.40
2017,08,22,01,01,16.40
2017,08,22,01,02,16.40
2017,08,22,01,03,16.40
2017,08,22,01,04,16.40
2017,08,22,01,05,16.40
2017,08,22,01,06,16.40
2017,08,22,01,07,16.40
2017,08,22,01,08,16.40
2017,08,22,01,09,16.40
2017,08,22,01,10,16.30
2017,08,22,01,11,16.30
2017,08,22,01,12,16.30
2017,08,22,01,13,16.30
2017,08,22,01,14,16.30
2017,08,22,01,15,16.30
2017,08,22,01,16,16.20
2017,08,22,01,17,16.20
2017,08,22,01,18,16.20
2017,08,22,01,19,16.20
2017,08,22,01,20,16.10
2017,08,22,01,21,16.10
2017,08,22,01,22,16.10
2017,08,22,01,23,16.10
2017,08,22,01,24,16.10
2017,08,22,01,25,16.10
2017,08,22,01,26,16.10
2017,08,22,01,27,16.00
2017,08,22,01,28,15.90
2017,08,22,01,29,15.90
2017,08,22,01,30,15.90
2017,08,22,01,31,15.90
2017,08,22,01,32,15.90
2017,08,22,01,33,15.90
2017,08,22,01,34,15.80
2017,08,22,01,35,15.80
2017,08,22,01,36,15.80
2017,08,22,01,37,15.80
2017,08,22,01,38,15.80
2017,08,22,01,39,15.80
2017,08,22,01,40,15.80
2017,08,22,01,41,15.80
2017,08,22,01,42,15.80
2017,08,22,01,43,15.80
2017,08,22,01,44,15.80
2017,08,22,01,45,15.80
2017,08,22,01,46,15.80
2017,08,22,01,47,15.80
2017,08,22,01,48,15.80
2017,08,22,01,49,15.80
2017,08,22,01,50,15.80
2017,08,22,01,51,15.80
2017,08,22,01,52,15.80
2017,08,22,01,53,15.80
2017,08,22,01,54,15.80
2017,08,22,01,55,15.80
2017,08,22,01,56,15.80
2017,08,22,01,57,15.80
2017,08,22,01,58,15.80
2017,08,22,01,59,15.90
2017,08,22,02,00,15.90
2017,08,22,02,01,15.90
2017,08,22,02,02,15.90
2017,08,22,02,03,15.80
2017,08,22,02,04,15.80
2017,08,22,02,05,15.80
2017,08,22,02,06,15.80
2017,08,22,02,07,15.80
2017,08,22,02,08,15.80
2017,08,22,02,09,15.80
2017,08,22,02,10,15.80
2017,08,22,02,11,15.80
2017,08,22,02,12,15.80
2017,08,22,02,13,15.80
2017,08,22,02,14,15.80
2017,08,22,02,15,15.80
2017,08,22,02,16,15.80
2017,08,22,02,17,15.80
2017,08,22,02,18,15.80
2017,08,22,02,19,15.80
2017,08,22,02,20,15.80
2017,08,22,02,21,15.80
2017,08,22,02,22,15.80
2017,08,22,02,23,15.80
2017,08,22,02,24,15.80
2017,08,22,02,25,15.70
2017,08,22,02,26,15.70
2017,08,22,02,27,15.70
2017,08,22,02,28,15.70
2017,08,22,02,29,15.70
2017,08,22,02,30,15.60
2017,08,22,02,31,15.60
2017,08,22,02,32,15.60
2017,08,22,02,33,15.60
2017,08,22,02,34,15.60
2017,08,22,02,35,15.60
2017,08,22,02,36,15.50
2017,08,22,02,37,15.50
2017,08,22,02,38,15.50
2017,08,22,02,39,15.50
2017,08,22,02,40,15.50
2017,08,22,02,41,15.50
2017,08,22,02,42,15.40
2017,08,22,02,43,15.40
2017,08,22,02,44,15.40
2017,08,22,02,45,15.40
2017,08,22,02,46,15.40
2017,08,22,02,47,15.30
2017,08,22,02,48,15.30
2017,08,22,02,49,15.30
2017,08,22,02,50,15.30
2017,08,22,02,51,15.30
2017,08,22,02,52,15.30
2017,08,22,02,53,15.30
2017,08,22,02,54,15.30
2017,08,22,02,55,15.20
2017,08,22,02,56,15.20
2017,08,22,02,57,15.20
2017,08,22,02,58,15.20
2017,08,22,02,59,15.20
2017,08,22,03,00,15.20
2017,08,22,03,01,15.20
2017,08,22,03,02,15.10
2017,08,22,03,03,15.10
2017,08,22,03,04,15.10
2017,08,22,03,05,15.10
2017,08,22,03,06,15.10
2017,08,22,03,07,15.10
2017,08,22,03,08,15.10
2017,08,22,03,09,15.10
2017,08,22,03,10,15.10
2017,08,22,03,11,15.10
2017,08,22,03,12,15.10
2017,08,22,03,13,15.10
2017,08,22,03,14,15.10
2017,08,22,03,15,15.10
2017,08,22,03,16,15.00
2017,08,22,03,17,15.00
2017,08,22,03,18,15.00
2017,08,22,03,19,15.00
2017,08,22,03,20,15.00
2017,08,22,03,21,15.00
2017,08,22,03,22,15.00
2017,08,22,03,23,15.00
2017,08,22,03,24,15.00
2017,08,22,03,25,15.00
2017,08,22,03,26,15.00
2017,08,22,03,27,15.00
2017,08,22,03,28,15.00
2017,08,22,03,29,14.90
2017,08,22,03,30,14.90
2017,08,22,03,31,14.90
2017,08,22,03,32,14.90
2017,08,22,03,33,14.90
2017,08,22,03,34,14.90
2017,08,22,03,35,14.90
2017,08,22,03,36,14.90
2017,08,22,03,37,14.90
2017,08,22,03,38,14.80
2017,08,22,03,39,14.80
2017,08,22,03,40,14.80
2017,08,22,03,41,14.80
2017,08,22,03,42,14.80
2017,08,22,03,43,14.80
2017,08,22,03,44,14.80
2017,08,22,03,45,14.80
2017,08,22,03,46,14.80
2017,08,22,03,47,14.80
2017,08,22,03,48,14.80
2017,08,22,03,49,14.80
2017,08,22,03,50,14.80
2017,08,22,03,51,14.80
2017,08,22,03,52,14.80
2017,08,22,03,53,14.80
2017,08,22,03,54,14.80
2017,08,22,03,55,14.80
2017,08,22,03,56,14.80
2017,08,22,03,57,14.80
2017,08,22,03,58,14.80
2017,08,22,03,59,14.80
2017,08,22,04,00,14.80
2017,08,22,04,01,14.80
2017,08,22,04,02,14.80
2017,08,22,04,03,14.80
2017,08,22,04,04,14.80
2017,08,22,04,05,14.80
2017,08,22,04,06,14.80
2017,08,22,04,07,14.80
2017,08,22,04,08,14.80
2017,08,22,04,09,14.80
2017,08,22,04,10,14.70
2017,08,22,04,11,14.70
2017,08,22,04,12,14.70
2017,08,22,04,13,14.70
2017,08,22,04,14,14.70
2017,08,22,04,15,14.70
2017,08,22,04,16,14.70
2017,08,22,04,17,14.70
2017,08,22,04,18,14.70
2017,08,22,04,19,14.70
2017,08,22,04,20,14.70
2017,08,22,04,21,14.70
2017,08,22,04,22,14.60
2017,08,22,04,23,14.60
2017,08,22,04,24,14.60
2017,08,22,04,25,14.60
2017,08,22,04,26,14.60
2017,08,22,04,27,14.60
2017,08,22,04,28,14.60
2017,08,22,04,29,14.60
2017,08,22,04,30,14.60
2017,08,22,04,31,14.60
2017,08,22,04,32,14.60
2017,08,22,04,33,14.60
2017,08,22,04,34,14.60
2017,08,22,04,35,14.60
2017,08,22,04,36,14.60
2017,08,22,04,37,14.60
2017,08,22,04,38,14.60
2017,08,22,04,39,14.60
2017,08,22,04,40,14.60
2017,08,22,04,41,14.60
2017,08,22,04,42,14.60
2017,08,22,04,43,14.70
2017,08,22,04,44,14.70
2017,08,22,04,45,14.70
2017,08,22,04,46,14.70
2017,08,22,04,47,14.70
2017,08,22,04,48,14.60
2017,08,22,04,49,14.60
2017,08,22,04,50,14.70
2017,08,22,04,51,14.70
2017,08,22,04,52,14.70
2017,08,22,04,53,14.70
2017,08,22,04,54,14.70
2017,08,22,04,55,14.70
2017,08,22,04,56,14.70
2017,08,22,04,57,14.70
2017,08,22,04,58,14.70
2017,08,22,04,59,14.70
2017,08,22,05,00,14.70
2017,08,22,05,01,14.70
2017,08,22,05,02,14.70
2017,08,22,05,03,14.70
2017,08,22,05,04,14.70
2017,08,22,05,05,14.70
2017,08,22,05,06,14.70
2017,08,22,05,07,14.70
2017,08,22,05,08,14.70
2017,08,22,05,09,14.70
2017,08,22,05,10,14.70
2017,08,22,05,11,14.70
2017,08,22,05,12,14.70
2017,08,22,05,13,14.70
2017,08,22,05,14,14.70
2017,08,22,05,15,14.60
2017,08,22,05,16,14.60
2017,08,22,05,17,14.60
2017,08,22,05,18,14.60
2017,08,22,05,19,14.60
2017,08,22,05,20,14.60
2017,08,22,05,21,14.60
2017,08,22,05,22,14.50
2017,08,22,05,23,14.50
2017,08,22,05,24,14.50
2017,08,22,05,25,14.50
2017,08,22,05,26,14.50
2017,08,22,05,27,14.50
2017,08,22,05,28,14.50
2017,08,22,05,29,14.50
2017,08,22,05,30,14.60
2017,08,22,05,31,14.60
2017,08,22,05,32,14.60
2017,08,22,05,33,14.60
2017,08,22,05,34,14.50
2017,08,22,05,35,14.50
2017,08,22,05,36,14.50
2017,08,22,05,37,14.50
2017,08,22,05,38,14.50
2017,08,22,05,39,14.50
2017,08,22,05,40,14.50
2017,08,22,05,41,14.40
2017,08,22,05,42,14.40
2017,08,22,05,43,14.40
2017,08,22,05,44,14.40
2017,08,22,05,45,14.40
2017,08,22,05,46,14.40
2017,08,22,05,47,14.40
2017,08,22,05,48,14.40
2017,08,22,05,49,14.40
2017,08,22,05,50,14.30
2017,08,22,05,51,14.30
2017,08,22,05,52,14.30
2017,08,22,05,53,14.30
2017,08,22,05,54,14.30
2017,08,22,05,55,14.30
2017,08,22,05,56,14.30
2017,08,22,05,57,14.30
2017,08,22,05,58,14.30
2017,08,22,05,59,14.30
2017,08,22,06,00,14.30
2017,08,22,06,01,14.30
2017,08,22,06,02,14.30
2017,08,22,06,03,14.30
2017,08,22,06,04,14.20
2017,08,22,06,05,14.20
2017,08,22,06,06,14.20
2017,08,22,06,07,14.20
2017,08,22,06,08,14.20
2017,08,22,06,09,14.20
2017,08,22,06,10,14.20
2017,08,22,06,11,14.20
2017,08,22,06,12,14.20
2017,08,22,06,13,14.20
2017,08,22,06,14,14.20
2017,08,22,06,15,14.20
2017,08,22,06,16,14.20
2017,08,22,06,17,14.20
2017,08,22,06,18,14.20
2017,08,22,06,19,14.20
2017,08,22,06,20,14.20
2017,08,22,06,21,14.20
2017,08,22,06,22,14.20
2017,08,22,06,23,14.20
2017,08,22,06,24,14.20
2017,08,22,06,25,14.20
2017,08,22,06,26,14.20
2017,08,22,06,27,14.20
2017,08,22,06,28,14.20
2017,08,22,06,29,14.20
2017,08,22,06,30,14.20
2017,08,22,06,31,14.30
2017,08,22,06,32,14.30
2017,08,22,06,33,14.30
2017,08,22,06,34,14.30
2017,08,22,06,35,14.30
2017,08,22,06,36,14.30
2017,08,22,06,37,14.30
2017,08,22,06,38,14.30
2017,08,22,06,39,14.40
2017,08,22,06,40,14.40
2017,08,22,06,41,14.40
2017,08,22,06,42,14.40
2017,08,22,06,43,14.40
2017,08,22,06,44,14.40
2017,08,22,06,45,14.40
2017,08,22,06,46,14.40
2017,08,22,06,47,14.50
2017,08,22,06,48,14.50
2017,08,22,06,49,14.50
2017,08,22,06,50,14.50
2017,08,22,06,51,14.50
2017,08,22,06,52,14.60
2017,08,22,06,53,14.60
2017,08,22,06,54,14.60
2017,08,22,06,55,14.70
2017,08,22,06,56,14.70
2017,08,22,06,57,14.80
2017,08,22,06,58,14.80
2017,08,22,06,59,14.80
2017,08,22,07,00,14.90
2017,08,22,07,01,14.90
2017,08,22,07,02,15.00
2017,08,22,07,03,15.00
2017,08,22,07,04,15.00
2017,08,22,07,05,15.00
2017,08,22,07,06,15.00
2017,08,22,07,07,15.00
2017,08,22,07,08,15.10
2017,08,22,07,09,15.10
2017,08,22,07,10,15.10
2017,08,22,07,11,15.10
2017,08,22,07,12,15.10
2017,08,22,07,13,15.10
2017,08,22,07,14,15.10
2017,08,22,07,15,15.20
2017,08,22,07,16,15.20
2017,08,22,07,17,15.20
2017,08,22,07,18,15.30
2017,08,22,07,19,15.30
2017,08,22,07,20,15.30
2017,08,22,07,21,15.50
2017,08,22,07,22,15.50
2017,08,22,07,23,15.60
2017,08,22,07,24,15.70
2017,08,22,07,25,15.80
2017,08,22,07,26,15.90
2017,08,22,07,27,16.00
2017,08,22,07,28,16.10
2017,08,22,07,29,16.20
2017,08,22,07,30,16.20
2017,08,22,07,31,16.30
2017,08,22,07,32,16.40
2017,08,22,07,33,16.40
2017,08,22,07,34,16.60
2017,08,22,07,35,16.60
2017,08,22,07,36,16.70
2017,08,22,07,37,16.70
2017,08,22,07,38,16.70
2017,08,22,07,39,16.70
2017,08,22,07,40,16.70
2017,08,22,07,41,16.70
2017,08,22,07,42,16.70
2017,08,22,07,43,16.70
2017,08,22,07,44,16.70
2017,08,22,07,45,16.70
2017,08,22,07,46,16.70
2017,08,22,07,47,16.70
2017,08,22,07,48,16.80
2017,08,22,07,49,16.80
2017,08,22,07,50,16.80
2017,08,22,07,51,16.90
2017,08,22,07,52,16.90
2017,08,22,07,53,17.00
2017,08,22,07,54,17.00
2017,08,22,07,55,17.00
2017,08,22,07,56,17.10
2017,08,22,07,57,17.10
2017,08,22,07,58,17.20
2017,08,22,07,59,17.30
2017,08,22,08,00,17.30
2017,08,22,08,01,17.40
2017,08,22,08,02,17.50
2017,08,22,08,03,17.50
2017,08,22,08,04,17.50
2017,08,22,08,05,17.50
2017,08,22,08,06,17.50
2017,08,22,08,07,17.60
2017,08,22,08,08,17.80
2017,08,22,08,09,17.90
2017,08,22,08,10,17.90
2017,08,22,08,11,17.90
2017,08,22,08,12,17.90
2017,08,22,08,13,17.90
2017,08,22,08,14,17.90
2017,08,22,08,15,17.90
2017,08,22,08,16,18.10
2017,08,22,08,17,18.10
2017,08,22,08,18,18.10
2017,08,22,08,19,18.10
2017,08,22,08,20,18.00
2017,08,22,08,21,17.90
2017,08,22,08,22,17.90
2017,08,22,08,23,18.00
2017,08,22,08,24,18.10
2017,08,22,08,25,18.10
2017,08,22,08,26,18.10
2017,08,22,08,27,18.10
2017,08,22,08,28,18.10
2017,08,22,08,29,18.20
2017,08,22,08,30,18.20
2017,08,22,08,31,18.30
2017,08,22,08,32,18.30
2017,08,22,08,33,18.40
2017,08,22,08,34,18.40
2017,08,22,08,35,18.50
2017,08,22,08,36,18.50
2017,08,22,08,37,18.60
2017,08,22,08,38,18.60
2017,08,22,08,39,18.70
2017,08,22,08,40,18.70
2017,08,22,08,41,18.70
2017,08,22,08,42,18.80
2017,08,22,08,43,18.80
2017,08,22,08,44,18.90
2017,08,22,08,45,18.90
2017,08,22,08,46,18.90
2017,08,22,08,47,19.00
2017,08,22,08,48,19.10
2017,08,22,08,49,19.10
2017,08,22,08,50,19.10
2017,08,22,08,51,19.20
2017,08,22,08,52,19.30
2017,08,22,08,53,19.30
2017,08,22,08,54,19.40
2017,08,22,08,55,19.50
2017,08,22,08,56,19.50
2017,08,22,08,57,19.60
2017,08,22,08,58,19.70
2017,08,22,08,59,19.70
2017,08,22,09,00,19.80
2017,08,22,09,01,19.90
2017,08,22,09,02,19.90
2017,08,22,09,03,19.90
2017,08,22,09,04,19.90
2017,08,22,09,05,19.90
2017,08,22,09,06,19.90
2017,08,22,09,07,19.90
2017,08,22,09,08,19.90
2017,08,22,09,09,19.90
2017,08,22,09,10,19.90
2017,08,22,09,11,20.10
2017,08,22,09,12,20.10
2017,08,22,09,13,20.10
2017,08,22,09,14,20.20
2017,08,22,09,15,20.20
2017,08,22,09,16,20.20
2017,08,22,09,17,20.30
2017,08,22,09,18,20.30
2017,08,22,09,19,20.30
2017,08,22,09,20,20.40
2017,08,22,09,21,20.40
2017,08,22,09,22,20.50
2017,08,22,09,23,20.50
2017,08,22,09,24,20.60
2017,08,22,09,25,20.60
2017,08,22,09,26,20.70
2017,08,22,09,27,20.80
2017,08,22,09,28,20.90
2017,08,22,09,29,20.80
2017,08,22,09,30,20.80
2017,08,22,09,31,20.80
2017,08,22,09,32,20.70
2017,08,22,09,33,20.60
2017,08,22,09,34,20.50
2017,08,22,09,35,20.40
2017,08,22,09,36,20.40
2017,08,22,09,37,20.40
2017,08,22,09,38,20.40
2017,08,22,09,39,20.30
2017,08,22,09,40,20.30
2017,08,22,09,41,20.30
2017,08,22,09,42,20.30
2017,08,22,09,43,20.30
2017,08,22,09,44,20.30
2017,08,22,09,45,20.20
2017,08,22,09,46,20.20
2017,08,22,09,47,20.20
2017,08,22,09,48,20.20
2017,08,22,09,49,20.10
2017,08,22,09,50,20.00
2017,08,22,09,51,19.90
2017,08,22,09,52,19.90
2017,08,22,09,53,19.90
2017,08,22,09,54,20.00
2017,08,22,09,55,20.10
2017,08,22,09,56,20.20
2017,08,22,09,57,20.30
2017,08,22,09,58,20.40
2017,08,22,09,59,20.50
2017,08,22,10,00,20.50
2017,08,22,10,01,20.60
2017,08,22,10,02,20.60
2017,08,22,10,03,20.70
2017,08,22,10,04,20.70
2017,08,22,10,05,20.80
2017,08,22,10,06,20.80
2017,08,22,10,07,20.80
2017,08,22,10,08,20.90
2017,08,22,10,09,20.90
2017,08,22,10,10,20.90
2017,08,22,10,11,21.00
2017,08,22,10,12,21.00
2017,08,22,10,13,21.00
2017,08,22,10,14,21.10
2017,08,22,10,15,21.10
2017,08,22,10,16,21.10
2017,08,22,10,17,21.20
2017,08,22,10,18,21.20
2017,08,22,10,19,21.20
2017,08,22,10,20,21.20
2017,08,22,10,21,21.20
2017,08,22,10,22,21.20
2017,08,22,10,23,21.10
2017,08,22,10,24,21.00
2017,08,22,10,25,21.00
2017,08,22,10,26,20.90
2017,08,22,10,27,20.80
2017,08,22,10,28,20.70
2017,08,22,10,29,20.60
2017,08,22,10,30,20.60
2017,08,22,10,31,20.50
2017,08,22,10,32,20.40
2017,08,22,10,33,20.30
2017,08,22,10,34,20.30
2017,08,22,10,35,20.20
2017,08,22,10,36,20.20
2017,08,22,10,37,20.20
2017,08,22,10,38,20.20
2017,08,22,10,39,20.20
2017,08,22,10,40,20.20
2017,08,22,10,41,20.20
2017,08,22,10,42,20.20
2017,08,22,10,43,20.20
2017,08,22,10,44,20.20
2017,08,22,10,45,20.20
2017,08,22,10,46,20.20
2017,08,22,10,47,20.20
2017,08,22,10,48,20.20
2017,08,22,10,49,20.20
2017,08,22,10,50,20.20
2017,08,22,10,51,20.30
2017,08,22,10,52,20.40
2017,08,22,10,53,20.40
2017,08,22,10,54,20.40
2017,08,22,10,55,20.40
2017,08,22,10,56,20.30
2017,08,22,10,57,20.30
2017,08,22,10,58,20.30
2017,08,22,10,59,20.40
2017,08,22,11,00,20.30
2017,08,22,11,01,20.40
2017,08,22,11,02,20.40
2017,08,22,11,03,20.50
2017,08,22,11,04,20.60
2017,08,22,11,05,20.60
2017,08,22,11,06,20.70
2017,08,22,11,07,20.80
2017,08,22,11,08,20.90
2017,08,22,11,09,20.90
2017,08,22,11,10,20.90
2017,08,22,11,11,20.90
2017,08,22,11,12,21.00
2017,08,22,11,13,21.00
2017,08,22,11,14,21.00
2017,08,22,11,15,21.10
2017,08,22,11,16,21.20
2017,08,22,11,17,21.30
2017,08,22,11,18,21.30
2017,08,22,11,19,21.30
2017,08,22,11,20,21.40
2017,08,22,11,21,21.50
2017,08,22,11,22,21.60
2017,08,22,11,23,21.70
2017,08,22,11,24,21.80
2017,08,22,11,25,22.00
2017,08,22,11,26,22.10
2017,08,22,11,27,22.20
2017,08,22,11,28,22.30
2017,08,22,11,29,22.40
2017,08,22,11,30,22.30
2017,08,22,11,31,22.30
2017,08,22,11,32,22.30
2017,08,22,11,33,22.30
2017,08,22,11,34,22.30
2017,08,22,11,35,22.30
2017,08,22,11,36,22.20
2017,08,22,11,37,22.20
2017,08,22,11,38,22.20
2017,08,22,11,39,22.30
2017,08,22,11,40,22.30
2017,08,22,11,41,22.40
2017,08,22,11,42,22.50
2017,08,22,11,43,22.60
2017,08,22,11,44,22.60
2017,08,22,11,45,22.50
2017,08,22,11,46,22.50
2017,08,22,11,47,22.50
2017,08,22,11,48,22.50
2017,08,22,11,49,22.60
2017,08,22,11,50,22.60
2017,08,22,11,51,22.60
2017,08,22,11,52,22.50
2017,08,22,11,53,22.50
2017,08,22,11,54,22.50
2017,08,22,11,55,22.50
2017,08,22,11,56,22.60
2017,08,22,11,57,22.70
2017,08,22,11,58,22.80
2017,08,22,11,59,22.90
2017,08,22,12,00,23.00
2017,08,22,12,01,23.10
2017,08,22,12,02,23.20
2017,08,22,12,03,23.20
2017,08,22,12,04,23.30
2017,08,22,12,05,23.30
2017,08,22,12,06,23.40
2017,08,22,12,07,23.40
2017,08,22,12,08,23.30
2017,08,22,12,09,23.30
2017,08,22,12,10,23.30
2017,08,22,12,11,23.30
2017,08,22,12,12,23.30
2017,08,22,12,13,23.30
2017,08,22,12,14,23.30
2017,08,22,12,15,23.30
2017,08,22,12,16,23.30
2017,08,22,12,17,23.30
2017,08,22,12,18,23.30
2017,08,22,12,19,23.30
2017,08,22,12,20,23.30
2017,08,22,12,21,23.30
2017,08,22,12,22,23.30
2017,08,22,14,03,25.50
2017,08,22,14,04,25.50
2017,08,22,14,05,25.50
2017,08,22,14,06,25.60
2017,08,22,14,07,25.70
2017,08,22,14,08,25.70
2017,08,22,14,09,25.60
2017,08,22,14,10,25.40
2017,08,22,14,11,25.30
2017,08,22,14,12,25.30
2017,08,22,14,13,25.20
2017,08,22,14,14,25.20
2017,08,22,14,15,25.00
2017,08,22,14,16,24.90
2017,08,22,14,17,24.90
2017,08,22,14,18,24.80
2017,08,22,14,19,24.70
2017,08,22,14,20,24.60
2017,08,22,14,21,24.70
2017,08,22,14,22,24.60
2017,08,22,14,23,24.70
2017,08,22,14,24,24.80
2017,08,22,14,25,24.80
2017,08,22,14,26,24.90
2017,08,22,14,27,25.00
2017,08,22,14,28,25.00
2017,08,22,14,29,24.80
2017,08,22,14,30,24.60
2017,08,22,14,31,24.50
2017,08,22,14,32,24.30
2017,08,22,14,33,24.10
2017,08,22,14,34,24.00
2017,08,22,14,35,23.90
2017,08,22,14,36,23.90
2017,08,22,14,37,23.80
2017,08,22,14,38,23.80
2017,08,22,14,39,23.70
2017,08,22,14,40,23.50
2017,08,22,14,41,23.40
2017,08,22,14,42,23.30
2017,08,22,14,43,23.10
2017,08,22,14,44,22.80
2017,08,22,14,45,22.70
2017,08,22,14,46,22.40
2017,08,22,14,47,22.10
2017,08,22,14,48,21.80
2017,08,22,14,49,21.50
2017,08,22,14,50,21.20
2017,08,22,14,51,21.00
2017,08,22,14,52,20.80
2017,08,22,14,53,20.60
2017,08,22,14,54,20.50
2017,08,22,14,55,20.40
2017,08,22,14,56,20.20
2017,08,22,14,57,20.20
2017,08,22,14,58,20.20
2017,08,22,14,59,20.20
2017,08,22,15,00,20.00
2017,08,22,15,01,19.90
2017,08,22,15,02,20.10
2017,08,22,15,03,20.00
2017,08,22,15,04,20.00
2017,08,22,15,05,20.10
2017,08,22,15,06,20.10
2017,08,22,15,07,20.10
2017,08,22,15,08,20.10
2017,08,22,15,09,20.10
2017,08,22,15,10,20.20
2017,08,22,15,11,20.20
2017,08,22,15,12,20.10
2017,08,22,15,13,20.10
2017,08,22,15,14,20.10
2017,08,22,15,15,20.10
2017,08,22,15,16,20.00
2017,08,22,15,17,19.90
2017,08,22,15,18,20.00
2017,08,22,15,19,20.10
2017,08,22,15,20,20.10
2017,08,22,15,21,20.00
2017,08,22,15,22,19.90
2017,08,22,15,23,19.90
2017,08,22,15,24,19.90
2017,08,22,15,25,19.90
2017,08,22,15,26,19.90
2017,08,22,15,27,19.90
2017,08,22,15,28,19.80
2017,08,22,15,29,19.80
2017,08,22,15,30,19.90
2017,08,22,15,31,20.00
2017,08,22,15,32,20.10
2017,08,22,15,33,20.10
2017,08,22,15,34,20.20
2017,08,22,15,35,20.30
2017,08,22,15,36,20.30
2017,08,22,15,37,20.30
2017,08,22,15,38,20.30
2017,08,22,15,39,20.50
2017,08,22,15,40,20.60
2017,08,22,15,41,20.80
2017,08,22,15,42,20.90
2017,08,22,15,43,21.00
2017,08,22,15,44,21.00
2017,08,22,15,45,21.00
2017,08,22,15,46,21.00
2017,08,22,15,47,21.00
2017,08,22,15,48,21.00
2017,08,22,15,49,20.90
2017,08,22,15,50,20.80
2017,08,22,15,51,20.80
2017,08,22,15,52,20.80
2017,08,22,15,53,20.80
2017,08,22,15,54,20.70
2017,08,22,15,55,20.70
2017,08,22,15,56,20.80
2017,08,22,15,57,20.90
2017,08,22,15,58,21.00
2017,08,22,15,59,21.10
2017,08,22,16,00,21.20
2017,08,22,16,01,21.30
2017,08,22,16,02,21.30
2017,08,22,16,03,21.50
2017,08,22,16,04,21.60
2017,08,22,16,05,21.60
2017,08,22,16,06,21.70
2017,08,22,16,07,21.70
2017,08,22,16,08,21.70
2017,08,22,16,09,21.80
2017,08,22,16,10,22.00
2017,08,22,16,11,22.10
2017,08,22,16,12,22.20
2017,08,22,16,13,22.40
2017,08,22,16,14,22.40
2017,08,22,16,15,22.30
2017,08,22,16,16,22.20
2017,08,22,16,17,22.10
2017,08,22,16,18,22.20
2017,08,22,16,19,22.30
2017,08,22,16,20,22.30
2017,08,22,16,21,22.30
2017,08,22,16,22,22.30
2017,08,22,16,23,22.30
2017,08,22,16,24,22.40
2017,08,22,16,25,22.50
2017,08,22,16,26,22.50
2017,08,22,16,27,22.60
2017,08,22,16,28,22.60
2017,08,22,16,29,22.60
2017,08,22,16,30,22.70
2017,08,22,16,31,22.60
2017,08,22,16,32,22.50
2017,08,22,16,33,22.40
2017,08,22,16,34,22.40
2017,08,22,16,35,22.40
2017,08,22,16,36,22.50
2017,08,22,16,37,22.60
2017,08,22,16,38,22.70
2017,08,22,16,39,22.80
2017,08,22,16,40,22.90
2017,08,22,16,41,23.00
2017,08,22,16,42,23.20
2017,08,22,16,43,23.30
2017,08,22,16,44,23.40
2017,08,22,16,45,23.50
2017,08,22,16,46,23.60
2017,08,22,16,47,23.70
2017,08,22,16,48,23.80
2017,08,22,16,49,23.90
2017,08,22,16,50,24.10
2017,08,22,16,51,24.30
2017,08,22,16,52,24.60
2017,08,22,16,53,24.90
2017,08,22,16,54,25.10
2017,08,22,16,55,25.30
2017,08,22,16,56,25.50
2017,08,22,16,57,25.60
2017,08,22,16,58,25.80
2017,08,22,16,59,25.90
2017,08,22,17,00,25.90
2017,08,22,17,01,26.00
2017,08,22,17,02,26.00
2017,08,22,17,03,26.10
2017,08,22,17,04,26.20
2017,08,22,17,05,26.30
2017,08,22,17,06,26.40
2017,08,22,17,07,26.50
2017,08,22,17,08,26.60
2017,08,22,17,09,26.70
2017,08,22,17,10,26.70
2017,08,22,17,11,26.80
2017,08,22,17,12,26.80
2017,08,22,17,13,26.80
2017,08,22,17,14,26.90
2017,08,22,17,15,27.00
2017,08,22,17,16,27.10
2017,08,22,17,17,27.30
2017,08,22,17,18,27.30
2017,08,22,17,19,27.40
2017,08,22,17,20,27.40
2017,08,22,17,21,27.40
2017,08,22,17,22,27.50
2017,08,22,17,23,27.60
2017,08,22,17,24,27.70
2017,08,22,17,25,27.70
2017,08,22,17,26,27.70
2017,08,22,17,27,27.80
2017,08,22,17,28,27.80
2017,08,22,17,29,27.80
2017,08,22,17,30,27.80
2017,08,22,17,31,27.80
2017,08,22,17,32,27.80
2017,08,22,17,33,27.80
2017,08,22,17,34,27.80
2017,08,22,17,35,27.80
2017,08,22,17,36,27.80
2017,08,22,17,37,27.80
2017,08,22,17,38,27.80
2017,08,22,17,39,27.80
2017,08,22,17,40,27.90
2017,08,22,17,41,28.00
2017,08,22,17,42,28.00
2017,08,22,17,43,28.00
2017,08,22,17,44,28.00
2017,08,22,17,45,28.00
2017,08,22,17,46,27.90
2017,08,22,17,47,27.90
2017,08,22,17,48,27.80
2017,08,22,17,49,27.70
2017,08,22,17,50,27.60
2017,08,22,17,51,27.40
2017,08,22,17,52,27.30
2017,08,22,17,53,27.30
2017,08,22,17,54,27.30
2017,08,22,17,55,27.20
2017,08,22,17,56,27.10
2017,08,22,17,57,27.10
2017,08,22,17,58,27.00
2017,08,22,17,59,26.90
2017,08,22,18,00,26.90
2017,08,22,18,01,26.90
2017,08,22,18,02,26.90
2017,08,22,18,03,26.90
2017,08,22,18,04,27.00
2017,08,22,18,05,27.10
2017,08,22,18,06,27.10
2017,08,22,18,07,27.20
2017,08,22,18,08,27.20
2017,08,22,18,09,27.30
2017,08,22,18,10,27.30
2017,08,22,18,11,27.30
2017,08,22,18,12,27.30
2017,08,22,18,13,27.30
2017,08,22,18,14,27.20
2017,08,22,18,15,27.20
2017,08,22,18,16,27.10
2017,08,22,18,17,27.00
2017,08,22,18,18,26.90
2017,08,22,18,19,26.90
2017,08,22,18,20,26.80
2017,08,22,18,21,26.70
2017,08,22,18,22,26.60
2017,08,22,18,23,26.50
2017,08,22,18,24,26.40
2017,08,22,18,25,26.30
2017,08,22,18,26,26.20
2017,08,22,18,27,26.20
2017,08,22,18,28,26.10
2017,08,22,18,29,26.00
2017,08,22,18,30,25.90
2017,08,22,18,31,25.90
2017,08,22,18,32,25.80
2017,08,22,18,33,25.70
2017,08,22,18,34,25.60
2017,08,22,18,35,25.50
2017,08,22,18,36,25.40
2017,08,22,18,37,25.40
2017,08,22,18,38,25.30
2017,08,22,18,39,25.20
2017,08,22,18,40,25.20
2017,08,22,18,41,25.10
2017,08,22,18,42,25.00
2017,08,22,18,43,24.90
2017,08,22,18,44,24.90
2017,08,22,18,45,24.80
2017,08,22,18,46,24.60
2017,08,22,18,47,24.40
2017,08,22,18,48,24.20
2017,08,22,18,49,24.00
2017,08,22,18,50,23.80
2017,08,22,18,51,23.70
2017,08,22,18,52,23.60
2017,08,22,18,53,23.50
2017,08,22,18,54,23.40
2017,08,22,18,55,23.40
2017,08,22,18,56,23.30
2017,08,22,18,57,23.30
2017,08,22,18,58,23.30
2017,08,22,18,59,23.30